World > North America > United States > Ohio

Hourly Claysville, OH Regional Weather

Feedback E-mail the Weather

Quick WX

Claysville, OH Weather Maps

°F °C°F °C
Claysville Weather Map
UTC Time: 7/1/2022, 11:54
Your Time:

Claysville, OH Regional Weather

Expires:202207011200;;490570
ASUS41 KCLE 011112
RWRCLE
OHIO REGIONAL WEATHER ROUNDUP
NATIONAL WEATHER SERVICE WILMINGTON, OH
700 AM EDT FRI JUL 01 2022

NOTE: "FAIR" INDICATES FEW OR NO CLOUDS BELOW 12,000 FEET WITH NO
SIGNIFICANT WEATHER AND/OR OBSTRUCTIONS TO VISIBILITY.


OHZ036-037-039>041-045>050-054>059-063>069-073>076-082>088-011200-
  CENTRAL AND SOUTHEAST OHIO
  
CITY           SKY/WX    TMP DP  RH WIND       PRES   REMARKS
COLUMBUS       FAIR      73  66  78 S5        30.04R                  
OSU AIRPORT    FAIR      75  62  64 SW3       30.04R                  
BOLTON FIELD   FAIR      69  63  80 SW5       30.05S                  
RICKENBACK AFB MOCLDY    73  67  80 S7        30.04R                  
NEWARK         FAIR      70  65  84 CALM      30.04R                  
MARION         FAIR      69  60  73 S6        30.03S                  
LANCASTER      FAIR      76  68  76 SW7       30.05S                  
ZANESVILLE     FAIR      69  63  81 W3        30.05S                  
NEW PHILLY     FAIR      68  61  78 SE3       30.05R                  
$$
  

SKY/WX - Weather  TMP - Temperature  DP - Dew Point  RH - Humidity
WIND - Wind Direction/Speed PRES - Barometric Pressure VSB - Visibility
WCI - Wind Chill Index E13G22 Wind - East Wind 13 mph/Gusts of 22 mph

Trending Headlines

Claysville Radar Loop



Claysville Quick Facts


National Two Day Weather Forecast


E-mail the Claysville Weather Forecast

Voice your opinion or tell us about page issues...